Showing default

OPS 5798 (TRANSIT 5B-4), 897

Orbit data source: Space-Track

OPS 5798 (TRANSIT 5B-4), 897 is a payload satellite owned by USN BuWeps (US) in LEO that was launched on Tue, 06 Oct 1964 UTC via a THOR ABLESTAR launch vehicle from the Air Force Western Test Range (AFWTR). Payload-class satellites include a variety of spacecraft equipped with specific instruments for various scientific and technological missions. These include communications satellites like Starlink; space stations such as the ISS; scientific satellites like the Hubble; Earth observation satellites from companies like Planet Labs, Umbra, and HawkEye 360; GPS; miniature CubeSats for education and research; and military/defense satellites.

Loading next visibility...
Identifier
897, 1964-063B
Orbit
LEO
Country
Flag of USUS
Related business
Manufacturer
NAFI
Mission
Spacecraft
Bus & Motor
TRANSIT 5, Unknown motor
Mass
~54 kg wet, ~54 kg dry
Launch date (UTC)
1964-10-06 (62 years ago)
Launch vehicle
THOR ABLESTAR
Launch site
Air Force Western Test Range (AFWTR)
Object type
Payload
Rocket body
Debris
Shape & HBR
Unknown
Radar Cross Section
Medium (>0.1 m² and <1 m²)

Expand to show TLE details & history
Last TLE update: 13 hours ago

TLE from 13 hours ago
0 OPS 5798 (TRANSIT 5B-4)
1   897U 64063B   26196.15428962  .00000028  00000-0  27763-4 0  9993
2   897  90.2333  76.1815 0021619  96.2018  56.5606 13.53738250 49007
Epoch: 2026-07-15T03:42Z
TLE epoch observation values (Epoch: 2026-07-15T03:42:10.623Z)
Latitude
27.06569°
Longitude
-92.25834°
Altitude
1,053.065 km
Speed
7.332 km/s
True Right ascension
17h 05m 12s
True Declination
26° 55' 56"
Sunlit
Object was in daylight at epoch
Visualization orbit readout
Latitude
Unknown
Longitude
Unknown
Altitude
Unknown
Speed
Unknown
Apparent Right ascension
Unknown
Apparent Declination
Unknown
Sunlit
N/A
Visualization observer readout
Local Sidereal Time
04:58:32
Azimuth
Unknown
Elevation
Unknown
Doppler factor
Unknown
Orbital elements
Apogee altitude
1,071.652 km
Perigee altitude
1,039.51 km
Semi-major axis
7,433.718 km
Eccentricity
0.00216
Inclination
90.2333°
RAAN
76.1815°
Arg. of periapsis
96.2018°
True anomaly
56.76764°
Mean anomaly
56.5606°
Eccentric anomaly
56.66409°
Mean motion
3.38637 °/min
Orbital period
106.31 mins
BSTAR
0.000027763
Loading maneuver chart data...
Computing Atmospheric mass density...
Loading historical data...
Loading historical data...
Loading historical data...
Loading historical data...
Loading historical data...
Loading historical data...
Loading historical data...
Other satellites on launch #63 in the year 1964 (1964-10-06 UTC)

Documentation

Showing up to 5 results
|